FW0492 Weather Reports


Display with metric or nautical units.
time (UTC)temp
F
wind
direction
speed
MPH
gust
MPH
rain 1hr
in
rain 24hr
in
rain mn
in
humidity
%
barometer
mb
20260507060540 69 193 1.0 2.0 0.00 0.00 0.00 54 1014.6
20260507060053 69 183 1.0 2.0 0.00 0.00 0.00 56 1014.7
20260507055541 69 170 0.0 2.0 0.00 0.00 0.00 53 1014.7
20260507055041 67 178 1.0 2.0 0.00 0.00 0.00 57 1014.7
20260507054549 69 229 1.0 2.0 0.00 0.00 0.00 57 1014.7
20260507054041 71 313 1.0 2.0 0.00 0.00 0.00 47 1014.6
20260507053541 71 298 1.0 1.0 0.00 0.00 0.00 48 1014.6
20260507053048 71 286 1.0 1.0 0.00 0.00 0.00 47 1014.6
20260507052541 71 270 1.0 1.0 0.00 0.00 0.00 49 1014.7
20260507052041 70 219 0.0 2.0 0.00 0.00 0.00 47 1014.7
20260507051546 70 219 1.0 2.0 0.00 0.00 0.00 54 1014.7
20260507051040 71 219 1.0 2.0 0.00 0.00 0.00 51 1014.7
20260507050537 73 0 0.0 2.0 0.00 0.00 0.00 46 1014.7
20260507050046 73 261 1.0 2.0 0.00 0.00 0.00 42 1014.7
20260507045541 73 223 1.0 2.0 0.00 0.00 0.00 41 1014.6
20260507045041 72 223 1.0 3.0 0.00 0.00 0.00 45 1014.6
20260507044558 71 210 2.0 3.0 0.00 0.00 0.00 49 1014.6
20260507044042 72 238 0.0 2.0 0.00 0.00 0.00 49 1014.6
20260507043540 73 303 1.0 2.0 0.00 0.00 0.00 42 1014.5
20260507043050 75 301 0.0 2.0 0.00 0.00 0.00 39 1014.5
20260507042538 77 0 0.0 2.0 0.00 0.00 0.00 34 1014.5
20260507042040 77 18 0.0 4.0 0.00 0.00 0.00 32 1014.6
20260507041550 77 18 2.0 4.0 0.00 0.00 0.00 31 1014.5
20260507041041 76 9 1.0 3.0 0.00 0.00 0.00 41 1014.5
20260507040541 76 327 0.0 3.0 0.00 0.00 0.00 35 1014.4
20260507040048 77 0 0.0 3.0 0.00 0.00 0.00 36 1014.3
20260507035540 77 34 1.0 5.0 0.00 0.00 0.00 33 1014.2
20260507035041 78 0 1.0 5.0 0.00 0.00 0.00 37 1014.1
20260507034548 78 128 1.0 4.0 0.00 0.00 0.00 32 1014.0
20260507034038 78 126 0.0 6.0 0.00 0.00 0.00 35 1013.9
20260507033540 80 127 2.0 6.0 0.00 0.00 0.00 28 1014.0
20260507033102 80 77 2.0 5.0 0.00 0.00 0.00 29 1013.8
20260507032542 80 162 1.0 8.0 0.00 0.00 0.00 29 1013.7
20260507032041 81 221 3.0 8.0 0.00 0.00 0.00 29 1013.6
20260507031559 81 150 4.0 12.0 0.00 0.00 0.00 28 1013.5
20260507031041 81 150 4.0 12.0 0.00 0.00 0.00 29 1013.5
20260507030540 81 167 5.0 10.0 0.00 0.00 0.00 27 1013.4
20260507030107 81 159 3.0 10.0 0.00 0.00 0.00 27 1013.4
20260507025540 81 191 5.0 10.0 0.00 0.00 0.00 28 1013.2
20260507025041 81 184 4.0 10.0 0.00 0.00 0.00 29 1013.2
20260507024607 81 127 4.0 10.0 0.00 0.00 0.00 28 1013.2
20260507024040 81 173 3.0 11.0 0.00 0.00 0.00 28 1013.0
20260507023540 81 138 5.0 14.0 0.00 0.00 0.00 28 1012.9
20260507023052 81 128 5.0 14.0 0.00 0.00 0.00 27 1012.9
20260507022538 81 153 6.0 15.0 0.00 0.00 0.00 27 1012.9
20260507022038 82 142 7.0 15.0 0.00 0.00 0.00 27 1012.8
20260507021556 82 148 9.0 14.0 0.00 0.00 0.00 27 1012.8
20260507021037 82 168 9.0 14.0 0.00 0.00 0.00 27 1012.8
20260507020541 82 96 7.0 13.0 0.00 0.00 0.00 29 1012.7
20260507020058 83 147 7.0 13.0 0.00 0.00 0.00 27 1012.7
20260507015541 83 150 6.0 13.0 0.00 0.00 0.00 27 1012.7
20260507015043 83 181 7.0 14.0 0.00 0.00 0.00 27 1012.8
20260507014555 83 134 7.0 14.0 0.00 0.00 0.00 26 1012.8
20260507014041 84 171 7.0 12.0 0.00 0.00 0.00 27 1012.4
20260507013543 84 128 8.0 12.0 0.00 0.00 0.00 27 1012.5
20260507013101 84 143 6.0 12.0 0.00 0.00 0.00 27 1012.6
20260507012540 84 137 6.0 12.0 0.00 0.00 0.00 27 1012.6
20260507012042 84 140 6.0 11.0 0.00 0.00 0.00 28 1012.6
20260507011554 84 178 7.0 11.0 0.00 0.00 0.00 28 1012.6
20260507011040 84 175 7.0 11.0 0.00 0.00 0.00 26 1012.6
20260507010540 84 157 5.0 11.0 0.00 0.00 0.00 28 1012.6
20260507010052 84 150 4.0 11.0 0.00 0.00 0.00 30 1012.6
20260507005537 84 103 3.0 11.0 0.00 0.00 0.00 29 1012.6
20260507005041 85 153 5.0 12.0 0.00 0.00 0.00 28 1012.5
20260507004551 85 121 5.0 12.0 0.00 0.00 0.00 28 1012.5
20260507004041 85 170 5.0 11.0 0.00 0.00 0.00 26 1012.6
20260507003544 85 171 6.0 11.0 0.00 0.00 0.00 29 1012.6
20260507003051 86 96 7.0 11.0 0.00 0.00 0.00 25 1012.4
20260507002537 86 78 7.0 11.0 0.00 0.00 0.00 26 1012.5
20260507002042 86 127 5.0 13.0 0.00 0.00 0.00 27 1012.4
20260507001546 86 99 5.0 13.0 0.00 0.00 0.00 25 1012.4
20260507001040 86 125 7.0 12.0 0.00 0.00 0.00 25 1012.3
20260507000541 87 89 8.0 12.0 0.00 0.00 0.00 25 1012.3
20260507000054 87 57 6.0 13.0 0.00 0.00 0.00 26 1012.3
20260506235543 87 86 6.0 13.0 0.00 0.00 0.00 25 1012.3
20260506235041 86 123 6.0 11.0 0.00 0.00 0.00 25 1012.2
20260506234604 86 80 8.0 11.0 0.00 0.00 0.00 25 1012.2
20260506234040 86 80 8.0 11.0 0.00 0.00 0.00 25 1012.3
20260506233541 87 90 6.0 12.0 0.00 0.00 0.00 24 1012.4
20260506233055 87 75 5.0 11.0 0.00 0.00 0.00 25 1012.3
20260506232540 87 92 6.0 11.0 0.00 0.00 0.00 24 1012.4
20260506232040 87 91 6.0 11.0 0.00 0.00 0.00 24 1012.4
20260506231555 87 76 6.0 11.0 0.00 0.00 0.00 24 1012.5
20260506231040 87 76 5.0 12.0 0.00 0.00 0.00 24 1012.5
20260506230537 87 101 7.0 11.0 0.00 0.00 0.00 24 1012.6
20260506230059 87 98 6.0 11.0 0.00 0.00 0.00 24 1012.7
20260506225541 86 81 6.0 11.0 0.00 0.00 0.00 25 1012.7
20260506225041 87 155 5.0 11.0 0.00 0.00 0.00 24 1012.7
20260506224546 88 66 5.0 9.0 0.00 0.00 0.00 24 1012.8
20260506224041 87 96 5.0 9.0 0.00 0.00 0.00 28 1012.9
20260506223541 87 95 6.0 12.0 0.00 0.00 0.00 25 1012.9
20260506223052 87 94 7.0 12.0 0.00 0.00 0.00 25 1013.0
20260506222541 87 71 5.0 13.0 0.00 0.00 0.00 25 1013.1
20260506222042 86 103 4.0 13.0 0.00 0.00 0.00 25 1013.2
20260506221552 87 80 4.0 10.0 0.00 0.00 0.00 24 1013.3
20260506221040 87 107 4.0 10.0 0.00 0.00 0.00 26 1013.3
20260506220542 86 71 4.0 10.0 0.00 0.00 0.00 25 1013.4
20260506220052 86 97 6.0 10.0 0.00 0.00 0.00 24 1013.6
20260506215541 87 103 4.0 9.0 0.00 0.00 0.00 25 1013.6
20260506215038 86 44 5.0 10.0 0.00 0.00 0.00 25 1013.6
20260506214550 86 74 4.0 10.0 0.00 0.00 0.00 26 1013.6
20260506214040 86 107 4.0 10.0 0.00 0.00 0.00 26 1013.8
20260506213537 86 75 4.0 9.0 0.00 0.00 0.00 25 1013.9
20260506213048 86 117 5.0 8.0 0.00 0.00 0.00 26 1013.9
20260506212540 86 106 3.0 8.0 0.00 0.00 0.00 26 1014.0
20260506212037 86 101 4.0 8.0 0.00 0.00 0.00 25 1014.1
20260506211554 85 85 4.0 7.0 0.00 0.00 0.00 26 1014.1
20260506211041 86 96 2.0 7.0 0.00 0.00 0.00 29 1014.2
20260506210541 85 43 2.0 9.0 0.00 0.00 0.00 26 1014.3
20260506210052 86 113 5.0 9.0 0.00 0.00 0.00 28 1014.4
20260506205540 84 13 3.0 9.0 0.00 0.00 0.00 26 1014.4
20260506205040 84 97 5.0 9.0 0.00 0.00 0.00 28 1014.5
20260506204552 85 81 5.0 9.0 0.00 0.00 0.00 28 1014.5
20260506204040 83 154 3.0 9.0 0.00 0.00 0.00 30 1014.6
20260506203540 84 128 5.0 9.0 0.00 0.00 0.00 29 1014.5
20260506203051 83 83 4.0 9.0 0.00 0.00 0.00 29 1014.7
20260506202541 84 109 4.0 7.0 0.00 0.00 0.00 31 1014.7
20260506202040 84 92 3.0 7.0 0.00 0.00 0.00 28 1014.8
20260506201555 83 74 4.0 7.0 0.00 0.00 0.00 29 1014.9
20260506201041 82 75 4.0 7.0 0.00 0.00 0.00 28 1014.9
20260506200539 84 50 4.0 7.0 0.00 0.00 0.00 27 1015.0
20260506200049 83 37 3.0 7.0 0.00 0.00 0.00 28 1015.1
20260506195538 83 117 4.0 7.0 0.00 0.00 0.00 30 1015.1
20260506195038 83 74 3.0 6.0 0.00 0.00 0.00 29 1015.3
20260506194553 83 101 2.0 8.0 0.00 0.00 0.00 31 1015.3
20260506194039 82 76 3.0 8.0 0.00 0.00 0.00 29 1015.5
20260506193538 81 89 3.0 8.0 0.00 0.00 0.00 29 1015.6
20260506193051 81 49 2.0 6.0 0.00 0.00 0.00 28 1015.6
20260506192538 81 44 2.0 6.0 0.00 0.00 0.00 28 1015.7
20260506192040 81 117 3.0 6.0 0.00 0.00 0.00 31 1015.9
20260506191553 79 74 3.0 6.0 0.00 0.00 0.00 29 1015.9
20260506191039 80 92 3.0 6.0 0.00 0.00 0.00 33 1016.0
20260506190539 80 155 1.0 4.0 0.00 0.00 0.00 32 1016.0
20260506190054 80 78 2.0 4.0 0.00 0.00 0.00 34 1016.1
20260506185538 80 168 1.0 4.0 0.00 0.00 0.00 31 1016.2
20260506185038 81 65 1.0 4.0 0.00 0.00 0.00 30 1016.3
20260506184554 80 360 2.0 4.0 0.00 0.00 0.00 29 1016.4
20260506184038 82 25 1.0 7.0 0.00 0.00 0.00 29 1016.5
20260506183538 78 60 2.0 7.0 0.00 0.00 0.00 34 1016.5
20260506183051 78 77 3.0 6.0 0.00 0.00 0.00 30 1016.5
20260506182538 78 88 2.0 6.0 0.00 0.00 0.00 31 1016.6
20260506182040 77 134 1.0 6.0 0.00 0.00 0.00 33 1016.5
20260506181549 77 130 3.0 6.0 0.00 0.00 0.00 34 1016.7
20260506181039 77 55 3.0 6.0 0.00 0.00 0.00 32 1016.7
20260506180539 77 127 3.0 6.0 0.00 0.00 0.00 36 1016.7
20260506180049 77 129 3.0 6.0 0.00 0.00 0.00 35 1016.7
20260506175539 76 105 2.0 6.0 0.00 0.00 0.00 35 1016.7
20260506175038 76 100 2.0 6.0 0.00 0.00 0.00 34 1016.8
20260506174552 75 136 3.0 6.0 0.00 0.00 0.00 37 1016.7
20260506174038 76 111 2.0 5.0 0.00 0.00 0.00 35 1016.7
20260506173539 76 55 2.0 7.0 0.00 0.00 0.00 36 1016.7
20260506173124 75 142 2.0 7.0 0.00 0.00 0.00 36 1016.8
20260506172538 76 138 1.0 6.0 0.00 0.00 0.00 35 1016.8
20260506172038 75 346 2.0 6.0 0.00 0.00 0.00 35 1016.7
20260506171549 74 360 3.0 7.0 0.00 0.00 0.00 36 1016.8
20260506171040 74 148 2.0 7.0 0.00 0.00 0.00 37 1016.7
20260506170540 73 135 2.0 4.0 0.00 0.00 0.00 37 1016.6
20260506170050 73 213 2.0 7.0 0.00 0.00 0.00 37 1016.7
20260506165538 73 115 4.0 7.0 0.00 0.00 0.00 36 1016.7
20260506165038 73 103 4.0 6.0 0.00 0.00 0.00 38 1016.7
20260506164556 72 65 3.0 7.0 0.00 0.00 0.00 40 1016.7
20260506164037 72 97 3.0 7.0 0.00 0.00 0.00 40 1016.7
20260506163538 72 66 2.0 4.0 0.00 0.00 0.00 40 1016.8
20260506163103 71 78 2.0 4.0 0.00 0.00 0.00 42 1016.8
20260506162538 71 81 1.0 4.0 0.00 0.00 0.00 42 1016.8
20260506162038 71 70 0.0 3.0 0.00 0.00 0.00 42 1016.8
20260506161603 71 74 1.0 3.0 0.00 0.00 0.00 42 1016.8
20260506161038 71 26 1.0 3.0 0.00 0.00 0.00 42 1016.8
20260506160538 70 0 1.0 3.0 0.00 0.00 0.00 43 1016.7
20260506160058 70 17 2.0 3.0 0.00 0.00 0.00 44 1016.8
20260506155538 68 237 0.0 3.0 0.00 0.00 0.00 44 1016.8
20260506155038 68 0 1.0 3.0 0.00 0.00 0.00 47 1016.6
20260506154556 68 234 1.0 2.0 0.00 0.00 0.00 50 1016.7
20260506154038 68 0 1.0 2.0 0.00 0.00 0.00 46 1016.8
20260506153538 67 297 0.0 2.0 0.00 0.00 0.00 49 1016.8
20260506153056 66 238 1.0 2.0 0.00 0.00 0.00 50 1016.7
20260506152539 66 254 1.0 2.0 0.00 0.00 0.00 51 1016.7
20260506152038 66 234 0.0 2.0 0.00 0.00 0.00 51 1016.7
20260506151552 65 228 1.0 2.0 0.00 0.00 0.00 53 1016.7
20260506151038 64 227 1.0 2.0 0.00 0.00 0.00 54 1016.7
20260506150544 64 360 1.0 2.0 0.00 0.00 0.00 52 1016.6
20260506150053 64 360 1.0 2.0 0.00 0.00 0.00 53 1016.7
20260506145542 64 360 0.0 2.0 0.00 0.00 0.00 54 1016.7
20260506145038 63 360 1.0 5.0 0.00 0.00 0.00 54 1016.7
20260506144554 63 267 1.0 5.0 0.00 0.00 0.00 55 1016.7
20260506144038 63 360 2.0 4.0 0.00 0.00 0.00 55 1016.7
20260506143538 62 210 1.0 4.0 0.00 0.00 0.00 56 1016.6
20260506143050 62 225 1.0 4.0 0.00 0.00 0.00 57 1016.6
20260506142538 62 215 2.0 4.0 0.00 0.00 0.00 57 1016.5
20260506142038 61 232 2.0 3.0 0.00 0.00 0.00 57 1016.5
20260506141549 61 234 1.0 2.0 0.00 0.00 0.00 58 1016.6
20260506141038 61 360 1.0 2.0 0.00 0.00 0.00 57 1016.5
20260506140540 61 360 1.0 2.0 0.00 0.00 0.00 58 1016.4
20260506140048 60 217 1.0 3.0 0.00 0.00 0.00 59 1016.3
20260506135539 60 0 1.0 3.0 0.00 0.00 0.00 58 1016.3
20260506135037 60 217 1.0 4.0 0.00 0.00 0.00 58 1016.2
20260506134545 60 286 2.0 4.0 0.00 0.00 0.00 58 1016.3
20260506134040 60 238 2.0 4.0 0.00 0.00 0.00 59 1016.1
20260506133538 60 360 1.0 2.0 0.00 0.00 0.00 59 1016.2
20260506133052 60 360 1.0 2.0 0.00 0.00 0.00 60 1016.1
20260506132539 59 240 1.0 3.0 0.00 0.00 0.00 61 1016.1
20260506132038 59 238 0.0 3.0 0.00 0.00 0.00 60 1016.0
20260506131552 59 246 2.0 3.0 0.00 0.00 0.00 61 1015.9
20260506131038 59 236 1.0 3.0 0.00 0.00 0.00 61 1015.8
20260506130541 59 245 2.0 3.0 0.00 0.00 0.00 61 1015.7
20260506130112 59 242 2.0 4.0 0.00 0.00 0.00 60 1015.6
20260506125538 59 250 2.0 4.0 0.00 0.00 0.00 59 1015.7
20260506125038 59 228 2.0 5.0 0.00 0.00 0.00 60 1015.6
20260506124558 60 222 2.0 5.0 0.00 0.00 0.00 59 1015.5
20260506124038 60 264 2.0 5.0 0.00 0.00 0.00 59 1015.4
20260506123538 60 242 2.0 3.0 0.00 0.00 0.00 59 1015.4
20260506123053 60 242 2.0 3.0 0.00 0.00 0.00 59 1015.3
20260506122540 59 257 2.0 5.0 0.00 0.00 0.00 59 1015.3
20260506122037 59 265 1.0 5.0 0.00 0.00 0.00 60 1015.3
20260506121547 59 260 2.0 4.0 0.00 0.00 0.00 59 1015.1
20260506121038 59 229 2.0 2.0 0.00 0.00 0.00 60 1015.1
20260506120540 59 250 1.0 3.0 0.00 0.00 0.00 60 1015.1
20260506120048 59 269 2.0 3.0 0.00 0.00 0.00 60 1015.0
20260506115538 59 250 2.0 2.0 0.00 0.00 0.00 60 1015.0
20260506115037 59 239 1.0 2.0 0.00 0.00 0.00 61 1015.1
20260506114551 59 270 1.0 3.0 0.00 0.00 0.00 61 1015.1
20260506114037 59 281 1.0 4.0 0.00 0.00 0.00 60 1015.1
20260506113537 60 264 2.0 4.0 0.00 0.00 0.00 60 1015.1
20260506113055 60 280 2.0 5.0 0.00 0.00 0.00 59 1015.1
20260506112539 60 296 3.0 8.0 0.00 0.00 0.00 57 1015.0
20260506112042 61 247 3.0 8.0 0.00 0.00 0.00 57 1015.1
20260506111549 61 216 3.0 6.0 0.00 0.00 0.00 57 1015.1
20260506111038 61 238 3.0 7.0 0.00 0.00 0.00 57 1015.1
20260506110538 61 239 3.0 7.0 0.00 0.00 0.00 56 1015.1
20260506110100 61 229 5.0 9.0 0.00 0.00 0.00 56 1015.1
20260506105538 61 225 6.0 9.0 0.00 0.00 0.00 57 1015.1
20260506105038 60 194 4.0 6.0 0.00 0.00 0.00 58 1015.0
20260506104552 60 241 3.0 6.0 0.00 0.00 0.00 58 1015.1
20260506104037 61 254 3.0 6.0 0.00 0.00 0.00 58 1015.1
20260506103538 61 251 2.0 5.0 0.00 0.00 0.00 57 1015.1
20260506103050 61 319 2.0 5.0 0.00 0.00 0.00 57 1015.0
20260506102538 61 244 1.0 3.0 0.00 0.00 0.00 56 1015.0
20260506102038 61 268 1.0 4.0 0.00 0.00 0.00 56 1014.9
20260506101600 61 209 2.0 4.0 0.00 0.00 0.00 56 1014.8
20260506101037 62 245 2.0 4.0 0.00 0.00 0.00 55 1014.9
20260506100537 61 226 1.0 3.0 0.00 0.00 0.00 56 1014.7
20260506100109 61 227 1.0 3.0 0.00 0.00 0.00 56 1014.8
20260506095537 61 186 0.0 2.0 0.00 0.00 0.00 56 1014.7
20260506095038 61 186 1.0 2.0 0.00 0.00 0.00 56 1014.8
20260506094552 62 192 0.0 2.0 0.00 0.00 0.00 55 1014.7
20260506094038 62 185 0.0 3.0 0.00 0.00 0.00 54 1014.8
20260506093538 62 216 0.0 4.0 0.00 0.00 0.00 56 1014.9
20260506093051 62 271 2.0 4.0 0.00 0.00 0.00 53 1014.9
20260506092538 62 132 0.0 2.0 0.00 0.00 0.00 54 1014.8
20260506092038 62 83 0.0 2.0 0.00 0.00 0.00 53 1014.8
20260506091548 62 0 1.0 2.0 0.00 0.00 0.00 53 1014.9
20260506091041 62 154 0.0 2.0 0.00 0.00 0.00 54 1014.9
20260506090537 63 0 0.0 2.0 0.00 0.00 0.00 52 1015.0
20260506090051 63 0 0.0 2.0 0.00 0.00 0.00 52 1014.9
20260506085537 63 205 0.0 3.0 0.00 0.00 0.00 51 1015.0
20260506085037 63 228 0.0 3.0 0.00 0.00 0.00 52 1015.1
20260506084619 63 0 0.0 2.0 0.00 0.00 0.00 52 1014.9
20260506084038 63 153 0.0 2.0 0.00 0.00 0.00 52 1015.0
20260506083606 63 153 0.0 4.0 0.00 0.00 0.00 52 1015.1
20260506083051 63 0 1.0 4.0 0.00 0.00 0.00 52 1015.0
20260506082539 63 209 1.0 2.0 0.00 0.00 0.00 52 1015.1
20260506082038 63 178 0.0 3.0 0.00 0.00 0.00 53 1015.1
20260506081555 63 167 0.0 4.0 0.00 0.00 0.00 51 1015.0
20260506081038 63 0 0.0 5.0 0.00 0.00 0.00 51 1014.9
20260506080537 64 17 2.0 5.0 0.00 0.00 0.00 50 1015.0
20260506073051 64 0 0.0 3.0 0.00 0.00 0.00 50 1014.9
20260506072538 63 156 2.0 3.0 0.00 0.00 0.00 52 1014.8
20260506072038 63 149 1.0 2.0 0.00 0.00 0.00 54 1014.7
20260506071547 64 102 0.0 2.0 0.00 0.00 0.00 50 1014.8
20260506071037 65 101 0.0 2.0 0.00 0.00 0.00 48 1014.8
20260506070537 64 71 1.0 3.0 0.00 0.00 0.00 50 1014.7
20260506062038 65 262 2.0 4.0 0.00 0.00 0.00 47 1014.3
20260506061545 64 107 1.0 2.0 0.00 0.00 0.00 51 1014.3
20260506061038 63 120 1.0 4.0 0.00 0.00 0.00 55 1014.3